Regional Weather Roundup
Issued by NWS Cleveland, OH

Home | Current Version | Previous Version | Text Only | Print | Product List | Glossary On
Versions: 1 2 3 4 5 6 7 8 9 10 11 12 13 14 15 16 17 18 19 20 21 22 23 24 25 26 27 28 29 30 31 32 33 34 35 36 37 38 39 40 41 42 43 44 45 46 47 48 49 50
000
ASUS41 KCLE 230702
RWRCLE
OHIO REGIONAL WEATHER ROUNDUP
NATIONAL WEATHER SERVICE CLEVELAND, OH
300 AM EDT FRI JUN 23 2017

NOTE: "FAIR" INDICATES FEW OR NO CLOUDS BELOW 12,000 FEET WITH NO
SIGNIFICANT WEATHER AND/OR OBSTRUCTIONS TO VISIBILITY.

OHZ001>008-015>018-024>027-034-035-043-044-230800-
   NORTHWEST OHIO

CITY           SKY/WX    TMP DP  RH WIND       PRES   REMARKS
DEFIANCE       LGT RAIN  70  67  90 S7        29.74F
FINDLAY        CLOUDY    74  65  73 S12       29.76F
TOLEDO EXPRESS CLOUDY    73  68  84 SW8       29.74F
TOLEDO EXEC    CLOUDY    75  69  81 S10       29.76F
LIMA           CLOUDY    72  68  87 S10       29.78F
$$

OHZ009>014-019>023-028>033-038-089-230800-
   NORTHEAST OHIO

CITY           SKY/WX    TMP DP  RH WIND       PRES   REMARKS
CLE-HOPKINS    MOCLDY    75  66  73 S15G21    29.80F
CLE-LAKEFRONT  CLEAR     75  65  70 S20       29.77F
CUY CO. ARPT   NOT AVBL
LORAIN-ELYRIA  PTCLDY    72  62  71 S10       29.79F
ASHTABULA      CLEAR     73  69  87 S10       29.80F
AKRON-CANTON   MOCLDY    72  65  78 S13       29.83F
WOOSTER        MOCLDY    71  66  84 SW12G18   29.83F
MANSFIELD      CLOUDY    71  66  84 S16       29.82F
YOUNGSTOWN     PTCLDY    72  66  81 SW13G20   29.83F
$$

OHZ042-051>053-060>062-070>072-077>081-230800-
  SOUTHWEST OHIO

CITY           SKY/WX    TMP DP  RH WIND       PRES   REMARKS
CINC-COVINGTON CLOUDY    72  71  97 S13       29.82F
CINC-LUNKEN    CLOUDY    72  32  23 S7        29.82F
HAMILTON       CLOUDY    73  72  96 S3        29.81F
DAYTON         FOG       70  69  97 S14       29.81F VSB 1
WRIGHT-PAT AFB CLOUDY    70  70 100 S10       29.81F
DAYTON GENERAL CLOUDY    71  69  93 S7        29.81F
WILMINGTON     LGT RAIN  70  70 100 S7        29.83F
$$

OHZ036-037-039>041-045>050-054>059-063>069-073>076-082>088-230800-
  CENTRAL AND SOUTHEAST OHIO

CITY           SKY/WX    TMP DP  RH WIND       PRES   REMARKS
COLUMBUS       LGT RAIN  71  71 100 S12       29.82F FOG
OSU AIRPORT    LGT RAIN  70  70 100 S6        29.82F FOG
BOLTON FIELD   NOT AVBL
RICKENBACK AFB HVY RAIN  69  69 100 S9        29.82F
NEWARK         LGT RAIN  71  68  90 S6        29.83F
MARION         CLOUDY    72  66  81 S10       29.81F
LANCASTER      LGT RAIN  70  69  97 S5        29.84F FOG
ZANESVILLE     LGT RAIN  70  68  93 S6        29.84F FOG
NEW PHILLY     NOT AVBL
$$




USA.gov is the U.S. government's official web portal to all federal, state and local government web resources and services.